Weather observations for the past three days for
Buffalo, Greater Buffalo International Airport
Imperial (Metric)
Date Time (edt) Wind (mph) Vis. (mi.) Weather Sky Cond. Temperature (ºF) Relative Humidity Wind Chill (°F) Heat Index (°F) Pressure Precipitation (in)
Air Dwpt 6 hour altimeter (in) sea level (mb) 1 hr 3 hr 6 hr
Max. Min.
13 16:54 SW 18 G 25 10.00 A Few Clouds FEW060 FEW100 FEW180 FEW280 81 59 47% 81 29.84 1010.2
13 15:54 SW 20 G 29 10.00 A Few Clouds FEW060 FEW130 FEW200 FEW290 84.9 57.9 40% 84 29.85 1010.3
13 14:54 SW 18 G 31 10.00 Partly Cloudy FEW060 FEW130 SCT200 SCT290 82.9 57 41% 82 29.86 1010.8
13 13:54 SW 21 G 30 10.00 Partly Cloudy and Breezy FEW060 FEW110 FEW160 SCT220 SCT270 82 57 82.9 72 43% 82 29.86 1010.9
13 12:54 SW 22 G 36 10.00 Mostly Cloudy and Breezy FEW060 FEW110 FEW160 BKN220 BKN270 81 55 41% 81 29.88 1011.4
13 11:54 SW 25 G 41 10.00 Partly Cloudy and Breezy FEW070 SCT110 SCT160 SCT220 SCT270 81 54 39% 81 29.9 1012.0
13 10:54 SW 23 G 35 10.00 Mostly Cloudy and Breezy FEW070 SCT110 SCT150 BKN250 79 54 42% 79 29.91 1012.4
13 09:54 SW 21 G 30 10.00 Mostly Cloudy and Breezy FEW120 BKN250 78.1 53.1 42% 79 29.91 1012.4
13 08:54 SW 14 10.00 A Few Clouds FEW120 FEW270 75.9 54 47% 78 29.91 1012.4
13 07:54 S 13 10.00 Mostly Cloudy FEW070 FEW140 BKN230 72 53.1 72 60.1 52% 29.92 1012.7
13 06:54 S 12 10.00 Mostly Cloudy FEW070 BKN230 69.1 52 55% 29.92 1012.8
13 05:54 S 8 10.00 A Few Clouds FEW080 64.9 52 63% 29.91 1012.6
13 04:54 S 6 10.00 Partly Cloudy FEW070 FEW090 SCT250 62.1 51.1 67% 29.91 1012.6
13 03:54 S 7 10.00 A Few Clouds FEW250 60.1 48.9 67% 29.92 1012.9
13 02:54 SE 7 10.00 A Few Clouds FEW250 61 48 63% 29.92 1012.9
13 01:54 SE 7 10.00 A Few Clouds FEW250 62.1 46 71.1 61 56% 29.92 1013.1
13 00:54 SE 8 10.00 A Few Clouds FEW250 62.1 46.9 58% 29.94 1013.5
12 23:54 SE 7 10.00 A Few Clouds FEW250 62.1 46 56% 29.95 1014.0
12 22:54 SE 8 10.00 A Few Clouds FEW250 64 46.9 54% 29.96 1014.4
12 21:54 S 6 10.00 A Few Clouds FEW250 66.9 46.9 49% 29.96 1014.6
12 20:54 S 6 10.00 A Few Clouds FEW250 68 46.9 47% 29.96 1014.4
12 19:54 SW 8 10.00 A Few Clouds FEW220 FEW260 71.1 46 75.9 71.1 41% 29.97 1014.8
12 18:54 SW 8 10.00 A Few Clouds FEW080 FEW220 73.9 45 36% 29.97 1014.6
12 17:54 W 10 G 17 10.00 A Few Clouds FEW065 FEW080 FEW220 73.9 46 37% 29.98 1015.0
12 16:54 S 7 10.00 A Few Clouds FEW060 FEW250 73.9 46.9 38% 29.99 1015.4
12 15:54 W 9 G 20 10.00 A Few Clouds FEW055 FEW110 75 46 36% 77 30 1015.7
12 14:54 SW 9 10.00 A Few Clouds FEW055 FEW110 73 45 37% 30.01 1016.2
12 13:54 Vrbl 5 10.00 Partly Cloudy FEW050 SCT130 SCT160 72 46.9 72 55.9 41% 30.02 1016.5
12 12:54 W 6 10.00 Partly Cloudy FEW045 SCT160 70 48 46% 30.04 1017.1
12 11:54 SW 6 10.00 Partly Cloudy FEW035 SCT170 SCT260 66.9 51.1 57% 30.04 1017.3
12 10:54 SW 6 10.00 Partly Cloudy FEW035 SCT160 SCT260 66 52 61% 30.05 1017.5
12 09:54 SW 5 10.00 Partly Cloudy FEW030 SCT160 SCT260 63 52 68% 30.05 1017.6
12 08:54 S 5 10.00 Mostly Cloudy FEW160 BKN200 BKN260 57.9 52 81% 30.05 1017.6
12 07:54 S 6 10.00 Mostly Cloudy BKN250 55.9 50 55.9 50 81% 30.05 1017.4
12 06:54 SE 6 10.00 Mostly Cloudy BKN250 52 48.9 89% 30.04 1017.3
12 05:54 S 5 10.00 Partly Cloudy SCT250 50 48 93% 49 30.04 1017.3
12 04:54 Calm 10.00 Partly Cloudy SCT250 52 48 86% 30.03 1017.1
12 03:54 Calm 10.00 A Few Clouds FEW250 51.1 46.9 86% 30.02 1016.7
12 02:54 Calm 10.00 A Few Clouds FEW250 52 48 86% 30.02 1016.6
12 01:54 Calm 10.00 A Few Clouds FEW250 52 48 61 51.1 86% 30.02 1016.8
12 00:54 Calm 10.00 A Few Clouds FEW250 53.1 48 83% 30.02 1016.9
11 23:54 S 5 10.00 A Few Clouds FEW035 FEW280 54 48.9 83% 30.03 1017.0
11 22:54 Calm 10.00 A Few Clouds FEW037 FEW280 54 48 80% 30.03 1017.1
11 20:54 W 3 10.00 A Few Clouds FEW045 FEW250 59 48.9 69% 30.02 1016.6
11 19:54 W 3 10.00 A Few Clouds FEW025 FEW045 FEW250 61 48 62.1 57.9 63% 30 1016.1
11 18:54 Calm 10.00 Mostly Cloudy FEW028 BKN041 62.1 48.9 62% 29.99 1015.8
11 17:54 W 3 10.00 Mostly Cloudy SCT028 BKN039 60.1 48.9 67% 30 1015.8
11 16:54 W 7 10.00 Overcast BKN030 OVC042 60.1 48.9 67% 30 1015.8
11 15:54 Calm 10.00 Mostly Cloudy BKN025 BKN039 60.1 48.9 67% 30 1015.8
11 14:54 W 5 10.00 Overcast BKN025 OVC039 60.1 48 65% 30.01 1016.2
11 13:54 SW 3 10.00 Overcast FEW013 OVC021 57.9 48.9 57.9 53.1 72% 30.01 1016.4
11 12:54 Calm 10.00 Overcast FEW013 OVC019 55.9 48.9 77% 30.02 1016.5
11 11:54 Calm 10.00 Overcast FEW011 BKN019 OVC039 55.9 48 75% 30.01 1016.3
11 10:54 Calm 10.00 Overcast FEW011 BKN017 OVC039 55 48.9 80% 30.01 1016.3
11 09:54 NE 5 7.00 Light Drizzle FEW008 OVC017 53.1 48.9 86% 30 1016.0
11 08:54 N 6 8.00 Light Drizzle FEW009 OVC015 53.1 48.9 86% 29.99 1015.7
11 07:54 N 5 10.00 Overcast BKN013 OVC023 54 48 54 53.1 80% 29.97 1014.9
11 05:54 NW 5 10.00 Overcast SCT024 OVC036 54 46.9 77% 29.94 1013.9
11 04:54 NW 5 10.00 Overcast OVC036 54 46.9 77% 29.93 1013.6
11 03:54 N 5 10.00 Overcast OVC038 54 46.9 77% 29.91 1013.0
11 02:54 N 3 10.00 Overcast OVC035 54 46.9 77% 29.91 1012.9
11 01:54 N 5 10.00 Overcast OVC036 54 46.9 57 54 77% 29.91 1012.8
11 00:54 N 3 10.00 Overcast OVC034 55 46.9 74% 29.9 1012.7
10 23:54 N 7 10.00 Overcast OVC028 55 46.9 74% 29.9 1012.6
10 22:54 N 5 10.00 Overcast BKN030 OVC037 55.9 48 75% 29.89 1012.1
10 21:54 W 5 10.00 Overcast FEW030 OVC037 55.9 48 75% 29.87 1011.5
10 20:54 W 5 10.00 Overcast OVC025 57 46.9 69% 29.84 1010.6
10 19:54 W 6 10.00 Overcast OVC026 57 46.9 57 54 69% 29.83 1010.3
10 18:54 W 7 10.00 Overcast FEW023 OVC032 57 46 67% 29.82 1010.1
10 17:54 W 8 10.00 Overcast BKN025 OVC032 57 46.9 69% 29.81 1009.7
Date Time (edt) Wind (mph) Vis. (mi.) Weather Sky Cond. Air Dwpt Max. Min. Relative Humidity Wind Chill (°F) Heat Index (°F) altimeter (in) sea level (mb) 1 hr 3 hr 6 hr
6 hour
Temperature (ºF) Pressure Precipitation (in)